Weather in Khairpur

Pakistan     27°31′14″N   68°44′47″E
temp.,
°C
wind,
m/s
gust,
m/s
humid.,
%
clouds,
%
prec.,
mm/h
press.,
hPa
HPBL,
m
23 april, fri
fri2323:00+33ssw46125 0.0 100380
02:00+30sw33230 0.0 100227
05:00+28se12270 0.0 100316
08:00+30ene911200 0.0 1006494
11:00+34ene99190 0.0 10081211
14:00+38ene76140 0.0 10062044
17:00+38ene64140 0.0 10052766
20:00+32e610230 0.0 1007317
24 april, sat
sat2423:00+30ene510280 0.0 1008220
02:00+28ene49310 0.0 1008195
05:00+26e48320 0.0 1009168
08:00+29e45280 0.0 1011370
11:00+35e33170 0.0 10111400
14:00+38ene21130 0.0 10082538
17:00+39ne22120 0.0 10062901
20:00+34ese22160 0.0 100726
25 april, sun
sun2523:00+32ese35170 0.0 100976
02:00+30e34192 0.0 100855
05:00+28sse33210 0.0 100928
08:00+33se34160 0.0 1011281
11:00+38sse33110 0.0 10111518
14:00+41sse12100 0.0 10073068
17:00+41sse2380 0.0 10044305
20:00+37se47110 0.0 1005112
26 april, mon
mon2623:00+35s46122 0.0 100691
02:00+32ssw35130 0.0 100566
05:00+32s45120 0.0 100455
08:00+36ssw46140 0.0 1006260
11:00+42ssw4390 0.0 10052622
14:00+44sse33617 0.0 10025604
17:00+44se55695 0.0 10015165
20:00+38sse48835 0.0 1002126
27 april, tue
tue2723:00+35s45123 0.0 100370
02:00+32s48210 0.0 1002138
05:00+31ssw45220 0.0 100379
08:00+35ssw45190 0.0 1005275
11:00+42s22110 0.0 10041279
14:00+45se53612 0.0 10025629
17:00+44se32626 0.0 10014507
20:00+39se46835 0.0 1002105